date,time,DOY,Ta_1_1_1,RH_1_1_1,LWin_1_1_1,LWout_1_1_1,SWin_1_1_1,SWout_1_1_1,PPFD_1_1_1,SWC_1_1_1,Ts_1_1_1
[yyyy-mm-dd],[HH:MM],[ddd.ddd],[K],[%],[W+1m-2],[W+1m-2],[W+1m-2],[W+1m-2],[µmol+1m-2s-1],[m+3m-3],[K]
2013-02-05,00:30,36.020,257.58766666666673,58.505000000000010,-5.7666666666666666,-2.8863333333333334,-0.44566666666666671,-0.23266666666666663,5.00000000000000184E-003,-9999.0,279.90999999999991
2013-02-05,01:00,36.041,257.69900000000001,57.839666666666673,-5.1566666666666663,-1.9246666666666663,-0.44500000000000012,-0.22800000000000006,1.66666666666666764E-003,-9999.0,279.90999999999991
2013-02-05,01:30,36.062,257.85933333333332,64.767666666666670,-4.6410000000000000,-2.1016666666666675,-0.36933333333333335,-0.22633333333333330,7.00000000000000101E-003,-9999.0,279.90999999999991
2013-02-05,02:00,36.083,257.79966666666672,74.257333333333321,-4.1113333333333326,-2.1706666666666665,-0.40966666666666668,-0.26533333333333331,3.00000000000000006E-003,-9999.0,279.90999999999991
2013-02-05,02:30,36.104,257.79433333333338,79.982999999999990,-3.9643333333333337,-3.3080000000000007,-0.31700000000000000,-0.26533333333333331,1.36666666666666690E-002,-9999.0,279.90999999999991
2013-02-05,03:00,36.124,258.18900000000002,81.145666666666642,-4.0276666666666667,-3.6533333333333338,-0.20966666666666672,-0.21166666666666670,1.16666666666666637E-002,-9999.0,279.90999999999991
2013-02-05,03:30,36.145,258.88966666666670,81.549666666666695,-3.9773333333333336,-4.3546666666666676,-0.12500000000000003,-0.19000000000000003,1.20000000000000002E-002,-9999.0,279.90999999999991
2013-02-05,04:00,36.166,259.29800000000000,81.967666666666673,-4.1923333333333321,-4.6826666666666661,-0.21800000000000008,-0.26400000000000001,1.53333333333333377E-002,-9999.0,279.90999999999991
2013-02-05,04:30,36.187,259.60366666666670,81.569666666666663,-4.1686666666666667,-4.0443333333333324,-0.23366666666666669,-0.23366666666666672,9.33333333333333411E-003,-9999.0,279.90999999999991
2013-02-05,05:00,36.208,259.93466666666671,81.267333333333355,-4.2863333333333333,-4.5436666666666667,-0.23066666666666669,-0.25666666666666671,5.00000000000000097E-003,-9999.0,279.90999999999991
2013-02-05,05:30,36.229,260.15899999999999,82.092999999999989,-4.3610000000000007,-6.0130000000000008,-0.25100000000000006,-0.35733333333333334,5.66666666666666621E-003,-9999.0,279.90999999999991
2013-02-05,06:00,36.249,260.22066666666660,82.645333333333326,-4.5869999999999997,-6.7179999999999991,-0.30633333333333329,-0.47100000000000003,5.66666666666666707E-003,-9999.0,279.90999999999991
2013-02-05,06:30,36.270,260.19466666666671,83.746333333333325,-4.7356666666666660,-7.1530000000000022,-0.36533333333333323,-0.54700000000000004,1.23333333333333333E-002,-9999.0,279.90999999999991
2013-02-05,07:00,36.291,260.20866666666672,85.215999999999994,-4.7239999999999993,-6.8383333333333329,-0.38533333333333331,-0.51366666666666672,5.43333333333333307E-002,-9999.0,279.90999999999991
2013-02-05,07:30,36.312,260.32966666666675,86.034666666666652,-5.0546666666666651,-6.6676666666666655,-0.10166666666666670,0.85066666666666668,3.2696666666666667,-9999.0,279.90999999999991
2013-02-05,08:00,36.333,260.47133333333335,85.877666666666684,-5.2976666666666672,-6.6263333333333332,1.8280000000000001,8.8476666666666688,20.335999999999999,-9999.0,279.90999999999991
2013-02-05,08:30,36.354,260.62599999999998,85.782666666666671,-5.5200000000000005,-8.0433333333333348,4.6593333333333344,20.745999999999995,45.777333333333338,-9999.0,279.90999999999991
2013-02-05,09:00,36.374,260.88299999999998,85.656333333333336,-5.4923333333333328,-8.7893333333333334,8.5686666666666671,36.940333333333335,80.414666666666662,-9999.0,279.90999999999991
2013-02-05,09:30,36.395,261.17733333333331,85.160000000000011,-4.9569999999999999,-8.6096666666666675,18.485000000000003,78.336666666666659,164.05433333333335,-9999.0,279.90999999999991
2013-02-05,10:00,36.416,261.84000000000003,83.404333333333355,-4.8486666666666673,-9.1566666666666663,34.389666666666663,148.62333333333333,299.98933333333332,-9999.0,279.90999999999991
2013-02-05,10:30,36.437,262.45766666666674,81.611333333333320,-4.2399999999999993,-9999.0,44.045999999999985,190.31333333333333,379.92833333333328,-9999.0,279.90999999999991
2013-02-05,11:00,36.458,262.97933333333333,79.214333333333315,-4.3926666666666661,-9999.0,57.783333333333331,262.66233333333332,509.48700000000002,-9999.0,279.90999999999991
2013-02-05,11:30,36.479,263.32966666666664,76.614999999999995,-4.6743333333333341,-9999.0,63.597666666666662,307.92533333333330,589.56600000000014,-9999.0,279.90999999999991
2013-02-05,12:00,36.499,264.28233333333333,72.713000000000008,-5.2619999999999987,-9999.0,75.252666666666698,359.77133333333342,693.01533333333316,-9999.0,279.90999999999991
2013-02-05,12:30,36.520,264.45133333333331,76.087333333333348,-4.5873333333333335,-9999.0,43.971000000000004,188.86233333333334,385.37499999999989,-9999.0,279.90999999999991
2013-02-05,13:00,36.541,264.45266666666669,80.440666666666701,-4.5306666666666660,-9999.0,32.528333333333329,137.64433333333329,287.42500000000001,-9999.0,279.90999999999991
2013-02-05,13:30,36.562,264.53000000000003,82.091666666666669,-4.1839999999999993,-9999.0,42.166333333333327,178.89433333333332,363.62500000000011,-9999.0,279.90999999999991
2013-02-05,14:00,36.583,264.60100000000006,82.033666666666662,-4.0026666666666664,-9999.0,50.171333333333330,217.13066666666666,430.68400000000008,-9999.0,279.90999999999991
2013-02-05,14:30,36.604,264.56466666666671,81.483333333333348,-4.7009999999999987,-9999.0,34.463333333333338,148.43699999999998,301.28766666666667,-9999.0,279.90999999999991
2013-02-05,15:00,36.624,264.21300000000008,80.509000000000015,-4.7736666666666663,-9999.0,26.339000000000002,113.38300000000001,229.90600000000001,-9999.0,279.90999999999991
2013-02-05,15:30,36.645,263.89600000000007,79.832999999999998,-4.4520000000000000,-9999.0,24.031333333333340,103.56866666666666,206.31933333333336,-9999.0,279.90999999999991
2013-02-05,16:00,36.666,263.67499999999995,76.450333333333319,-4.3153333333333341,-9999.0,16.901000000000003,73.319333333333347,145.05433333333335,-9999.0,279.90999999999991
2013-02-05,16:30,36.687,263.41400000000004,78.337000000000003,-4.9896666666666665,-9999.0,9.7709999999999990,43.054999999999993,85.872333333333344,-9999.0,279.90999999999991
2013-02-05,17:00,36.708,263.13133333333337,82.691333333333361,-5.7820000000000000,-9999.0,3.5363333333333338,15.662000000000001,33.167999999999992,-9999.0,279.90999999999991
2013-02-05,17:30,36.729,263.01433333333335,85.793333333333322,-5.3253333333333330,-9999.0,0.29000000000000004,1.2916666666666665,5.4599999999999991,-9999.0,279.90999999999991
2013-02-05,18:00,36.749,262.84699999999998,82.164000000000016,-5.7669999999999986,-9999.0,-8.13333333333333408E-002,-1.6673333333333329,5.50000000000000211E-002,-9999.0,279.90999999999991
2013-02-05,18:30,36.770,262.44799999999998,79.572000000000017,-6.9256666666666691,-9999.0,0.11833333333333333,-2.2763333333333340,1.33333333333333329E-003,-9999.0,279.90999999999991
2013-02-05,19:00,36.791,262.05766666666671,81.027000000000015,-8.9046666666666656,-9999.0,0.28333333333333333,-3.0493333333333337,1.33333333333333329E-003,-9999.0,279.90999999999991
2013-02-05,19:30,36.812,261.67833333333340,82.875333333333359,-9.1570000000000000,-9999.0,0.18866666666666670,-3.0186666666666664,3.33333333333333322E-004,-9999.0,279.90999999999991
2013-02-05,20:00,36.833,261.35666666666668,84.315666666666672,-9.3845454545454565,-9999.0,0.36866666666666670,-3.1300000000000012,1.66666666666666677E-003,-9999.0,279.90999999999991
2013-02-05,20:30,36.854,261.07433333333341,83.218999999999994,-9999.0,-9999.0,0.45733333333333331,-3.4069999999999996,8.00000000000000017E-003,-9999.0,279.90999999999991
2013-02-05,21:00,36.874,260.78866666666670,80.934333333333342,-9999.0,-9999.0,0.46533333333333338,-3.5256666666666674,6.66666666666666709E-003,-9999.0,279.90999999999991
2013-02-05,21:30,36.895,260.58233333333334,79.155666666666676,-9999.0,-9999.0,0.51333333333333331,-3.7313333333333327,1.00000000000000045E-003,-9999.0,279.90999999999991
2013-02-05,22:00,36.916,259.96466666666669,80.473666666666659,-9999.0,-9999.0,0.25799999999999990,-3.6259999999999999,4.33333333333333313E-003,-9999.0,279.90999999999991
2013-02-05,22:30,36.937,259.47666666666669,81.559000000000026,-9999.0,-9999.0,0.32966666666666661,-3.6296666666666670,5.00000000000000097E-003,-9999.0,279.90999999999991
2013-02-05,23:00,36.958,259.16266666666672,82.268666666666647,-9999.0,-9999.0,0.32666666666666661,-3.4783333333333339,8.66666666666666627E-003,-9999.0,279.90999999999991
2013-02-05,23:30,36.979,258.27466666666675,84.079999999999998,-9.1400000000000006,-9999.0,3.16666666666666693E-002,-3.2683333333333335,1.03333333333333350E-002,-9999.0,279.90999999999991
2013-02-06,00:00,37.000,258.21233333333333,83.756333333333345,-6.8746428571428551,-9999.0,-0.32299999999999984,-1.1146666666666669,1.50000000000000064E-002,-9999.0,279.90999999999991
